#timestamp,LO_Frequency,Hit,Temp,Hum 
1479855615.1,286047157.0,N,0.0,0.0
1479855635.9,286047156.5,N,0.0,0.0
1479855655.7,286047156.5,N,0.0,0.0
1479855675.5,286047156.7,N,0.0,0.0
1479855695.4,286047156.6,N,0.0,0.0
1479855715.2,286047156.5,N,0.0,0.0
1479855735.1,286047159.0,N,0.0,0.0
1479855736.0,286047159.0,N,0.0,0.0
1479855755.8,286047158.9,N,0.0,0.0
1479855775.6,286047159.4,N,0.0,0.0
1479855795.5,286047156.6,N,0.0,0.0
1479855815.3,286047159.6,N,0.0,0.0
1479855835.2,286047159.0,N,0.0,0.0
1479855855.9,286047159.3,N,0.0,0.0
1479855875.7,286047158.3,N,0.0,0.0
1479855895.6,286047158.5,N,0.0,0.0
1479855915.4,286047158.4,N,0.0,0.0
1479855935.2,286047158.1,N,0.0,0.0
1479855955.1,286047158.6,N,0.0,0.0
1479855956.0,286047158.6,N,0.0,0.0
1479855975.8,286047158.5,N,0.0,0.0
1479855995.7,286047158.4,N,0.0,0.0
1479856015.5,286047158.7,N,0.0,0.0
1479856035.3,286047158.3,N,0.0,0.0
1479856055.2,286047158.2,N,0.0,0.0
1479856075.0,286047158.1,N,0.0,0.0
1479856075.9,286047158.1,N,0.0,0.0
1479856095.8,286047158.1,N,0.0,0.0
1479856115.6,286047161.1,N,0.0,0.0
1479856135.4,286047160.8,N,0.0,0.0
1479856155.3,286047160.2,N,0.0,0.0
1479856175.1,286047160.4,N,0.0,0.0
1479856195.8,286047160.5,N,0.0,0.0
1479856215.7,286047160.7,N,0.0,0.0
1479856235.5,286047161.0,N,0.0,0.0
1479856255.4,286047160.9,N,0.0,0.0
1479856275.2,286047160.4,N,0.0,0.0
1479856295.0,286047160.2,N,0.0,0.0
1479856295.9,286047160.2,N,0.0,0.0
1479856315.8,286047162.7,N,0.0,0.0
1479856335.6,286047160.1,N,0.0,0.0
1479856355.5,286047162.4,N,0.0,0.0
1479856375.3,286047162.3,N,0.0,0.0
1479856395.1,286047162.7,N,0.0,0.0
1479856415.9,286047159.7,N,0.0,0.0
1479856435.7,286047162.8,N,0.0,0.0
1479856455.5,286047159.7,N,0.0,0.0
1479856475.4,286047160.4,N,0.0,0.0
1479856495.2,286047160.4,N,0.0,0.0
1479856515.1,286047159.9,N,0.0,0.0
1479856516.0,286047159.9,N,0.0,0.0
1479856535.8,286047162.3,N,0.0,0.0
1479856555.6,286047162.7,N,0.0,0.0
1479856575.5,286047162.3,N,0.0,0.0
1479856595.3,286047162.6,N,0.0,0.0
1479856615.1,286047162.0,N,0.0,0.0
1479856635.9,286047162.1,N,0.0,0.0
1479856655.7,286047161.5,N,0.0,0.0
1479856675.6,286047161.3,N,0.0,0.0
1479856695.4,286047161.4,N,0.0,0.0
1479856715.2,286047161.3,N,0.0,0.0
1479856735.1,286047164.4,N,0.0,0.0
1479856736.0,286047164.4,N,0.0,0.0
1479856755.8,286047164.2,N,0.0,0.0
1479856775.7,286047164.3,N,0.0,0.0
1479856795.5,286047161.3,N,0.0,0.0
1479856815.3,286047161.3,N,0.0,0.0
1479856835.2,286047161.7,N,0.0,0.0
1479856855.0,286047161.4,N,0.0,0.0
1479856855.9,286047161.4,N,0.0,0.0
1479856875.7,286047161.7,N,0.0,0.0
1479856895.6,286047164.0,N,0.0,0.0
1479856915.4,286047163.9,N,0.0,0.0
1479856935.3,286047162.0,N,0.0,0.0
1479856955.1,286047162.1,N,0.0,0.0
1479856975.8,286047161.9,N,0.0,0.0
1479856995.7,286047162.0,N,0.0,0.0
1479857015.5,286047161.5,N,0.0,0.0
1479857035.4,286047161.4,N,0.0,0.0
1479857055.2,286047161.8,N,0.0,0.0
1479857075.0,286047164.3,N,0.0,0.0
1479857075.9,286047164.3,N,0.0,0.0
1479857095.8,286047164.2,N,0.0,0.0
1479857115.6,286047163.1,N,0.0,0.0
1479857135.5,286047163.6,N,0.0,0.0
1479857155.3,286047164.0,N,0.0,0.0
1479857175.1,286047161.3,N,0.0,0.0
1479857195.9,286047164.2,N,0.0,0.0
1479857215.7,286047164.2,N,0.0,0.0
1479857235.5,286047163.7,N,0.0,0.0
1479857255.4,286047161.5,N,0.0,0.0
1479857275.2,286047163.8,N,0.0,0.0
1479857295.1,286047164.1,N,0.0,0.0
1479857296.0,286047164.1,N,0.0,0.0
1479857315.8,286047161.4,N,0.0,0.0
1479857335.6,286047161.3,N,0.0,0.0
1479857355.5,286047163.7,N,0.0,0.0
1479857375.3,286047163.8,N,0.0,0.0
1479857395.2,286047163.2,N,0.0,0.0
1479857415.9,286047165.9,N,0.0,0.0
1479857435.7,286047165.5,N,0.0,0.0
1479857455.6,286047165.4,N,0.0,0.0
1479857475.4,286047165.4,N,0.0,0.0
1479857495.2,286047164.9,N,0.0,0.0
1479857515.1,286047164.6,N,0.0,0.0
1479857516.0,286047164.6,N,0.0,0.0
1479857535.8,286047165.1,N,0.0,0.0
1479857555.7,286047165.5,N,0.0,0.0
1479857575.5,286047165.8,N,0.0,0.0
1479857595.3,286047163.3,N,0.0,0.0
1479857615.2,286047163.2,N,0.0,0.0
1479857635.0,286047165.7,N,0.0,0.0
1479857635.9,286047165.7,N,0.0,0.0
1479857655.8,286047165.3,N,0.0,0.0
1479857675.6,286047165.5,N,0.0,0.0
1479857695.4,286047165.5,N,0.0,0.0
1479857715.3,286047165.4,N,0.0,0.0
1479857735.1,286047165.2,N,0.0,0.0
1479857755.8,286047164.9,N,0.0,0.0
1479857775.7,286047167.2,N,0.0,0.0
1479857795.5,286047167.1,N,0.0,0.0
1479857815.4,286047167.2,N,0.0,0.0
1479857835.2,286047167.6,N,0.0,0.0
1479857855.0,286047167.2,N,0.0,0.0
1479857855.9,286047167.2,N,0.0,0.0
1479857875.8,286047167.3,N,0.0,0.0
1479857895.6,286047166.7,N,0.0,0.0
1479857915.4,286047166.3,N,0.0,0.0
1479857935.3,286047169.2,N,0.0,0.0
1479857955.1,286047166.2,N,0.0,0.0
1479857975.9,286047166.9,N,0.0,0.0
1479857995.7,286047166.5,N,0.0,0.0
1479858015.5,286047168.7,N,0.0,0.0
1479858035.4,286047168.7,N,0.0,0.0
1479858055.2,286047169.1,N,0.0,0.0
1479858075.0,286047169.1,N,0.0,0.0
1479858075.9,286047169.1,N,0.0,0.0
1479858095.8,286047168.2,N,0.0,0.0
1479858115.6,286047168.0,N,0.0,0.0
1479858135.5,286047168.4,N,0.0,0.0
1479858155.3,286047168.4,N,0.0,0.0
1479858175.1,286047168.8,N,0.0,0.0
1479858195.9,286047166.1,N,0.0,0.0
1479858215.7,286047166.5,N,0.0,0.0
1479858235.6,286047168.7,N,0.0,0.0
1479858255.4,286047168.0,N,0.0,0.0
1479858275.2,286047167.7,N,0.0,0.0
1479858295.1,286047168.4,N,0.0,0.0
1479858296.0,286047168.4,N,0.0,0.0
1479858315.8,286047168.4,N,0.0,0.0
1479858335.6,286047167.7,N,0.0,0.0
1479858355.5,286047170.5,N,0.0,0.0
1479858375.3,286047169.8,N,0.0,0.0
1479858395.2,286047169.3,N,0.0,0.0
1479858415.9,286047172.0,N,0.0,0.0
1479858435.7,286047172.3,N,0.0,0.0
1479858455.6,286047169.4,N,0.0,0.0
1479858475.4,286047172.0,N,0.0,0.0
1479858495.2,286047172.1,N,0.0,0.0
1479858515.1,286047172.2,N,0.0,0.0
1479858516.0,286047172.2,N,0.0,0.0
1479858535.8,286047172.1,N,0.0,0.0
1479858555.7,286047171.6,N,0.0,0.0
1479858575.5,286047171.8,N,0.0,0.0
1479858595.3,286047171.4,N,0.0,0.0
1479858615.2,286047171.4,N,0.0,0.0
1479858635.0,286047171.1,N,0.0,0.0
1479858635.9,286047171.1,N,0.0,0.0
1479858655.8,286047171.4,N,0.0,0.0
1479858675.6,286047171.3,N,0.0,0.0
1479858695.4,286047171.0,N,0.0,0.0
1479858715.3,286047171.2,N,0.0,0.0
1479858735.1,286047171.6,N,0.0,0.0
1479858755.8,286047171.4,N,0.0,0.0
1479858775.7,286047173.8,N,0.0,0.0
1479858795.5,286047173.2,N,0.0,0.0
1479858815.3,286047173.0,N,0.0,0.0
1479858835.2,286047172.6,N,0.0,0.0
1479858855.0,286047172.7,N,0.0,0.0
1479858855.9,286047172.7,N,0.0,0.0
1479858875.8,286047172.8,N,0.0,0.0
1479858895.6,286047172.6,N,0.0,0.0
1479858915.4,286047172.5,N,0.0,0.0
1479858935.3,286047172.8,N,0.0,0.0
1479858955.1,286047173.1,N,0.0,0.0
1479858975.9,286047172.6,N,0.0,0.0
1479858995.7,286047175.5,N,0.0,0.0
1479859015.5,286047175.3,N,0.0,0.0
1479859035.4,286047172.9,N,0.0,0.0
1479859055.2,286047172.7,N,0.0,0.0
1479859075.0,286047175.5,N,0.0,0.0
1479859075.9,286047175.5,N,0.0,0.0
1479859095.8,286047175.6,N,0.0,0.0
1479859115.6,286047172.5,N,0.0,0.0
1479859135.5,286047172.9,N,0.0,0.0
1479859155.3,286047172.6,N,0.0,0.0
1479859175.1,286047175.4,N,0.0,0.0
1479859195.9,286047174.8,N,0.0,0.0
